Tracking 17147 objects as of 5-July-2015
HD Live streaming from Space Station

GLOBALSTAR M048

Track GLOBALSTAR M048 now!
10-day predictions
GLOBALSTAR M048 is classified as:


NORAD ID: 25872
Int'l Code: 1999-041A
Perigee: 1,987.8 km
Apogee: 2,009.6 km
Inclination: 51.9 °
Period: 127.0 minutes
Semi major axis: 8369 km
RCS: 2.5743 m2 (large)
Launch date: July 25, 1999
Source: Globalstar (GLOB)
Your satellite tracking list
Your tracking list is empty





NASA's NSSDC Master Catalog

Two Line Element Set (TLE):
1 25872U 99041A   15185.40298352 -.00000078  00000-0 -22744-3 0  9999
2 25872 051.9389 325.7346 0013037 011.9750 020.9118 11.33802212712451

Source of the keplerian elements: AFSPC

N2YO: 235